Погода в Прахатице

Чехия     49°00′43″N   14°00′02″E
темп.,
°C
ветер,
м/с
пор.,
м/с
влажн.,
%
обл.,
%
осадки,
мм/ч
давл.,
гПа
погр.,
м
17 мая, вт
вт1723:00+14зюз1192100 1.1 101918
02:00+13юз2693100 1.1 1019210
05:00+12зюз3894100 0.1 1019374
08:00+13зсз399296 0.1 1019830
11:00+16сз598521 1.2 10201036
14:00+20сз694726 1.7 10192133
17:00+18с585893 0.1 10191409
20:00+13ссв119343 0.9 102129
18 мая, ср
ср1823:00+10сз119868 0.1 102311
02:00+10св009973 0.1 102411
05:00+9юв119951 0.0 102529
08:00+12вюв129076 0.0 1026348
11:00+17в325918 0.0 10261125
14:00+19в434718 0.0 10251561
17:00+19в44476 0.0 10241260
20:00+13вюв26685 0.0 1026181
19 мая, чт
чт1923:00+8ююв22745 0.0 102715
02:00+7ю11695 0.0 102611
05:00+7ю11755 0.0 102611
08:00+14вюв12575 0.0 1024191
11:00+21вюв234110 0.0 1023859
14:00+25ююв243453 0.0 10221704
17:00+25юз2439100 0.0 10211557
20:00+18юз117746 0.0 102120
20 мая, пт
пт2023:00+15юз2287100 0.0 102340
02:00+16юз3489100 0.3 1023117
05:00+15юз2390100 0.4 102370
08:00+19юз2373100 0.4 1023179
11:00+25зюз134584 0.0 10221434
14:00+26юз344044 0.0 10202160
17:00+26юз45425 0.0 10181677
20:00+20ююз38715 0.0 1016232
21 мая, сб
сб2123:00+16зюз1392100 1.6 101777
02:00+15зюз3109193 2.8 1018342
05:00+13юз249775 1.2 101886
08:00+16з3887100 1.2 1019959
11:00+20з595098 0.0 10181541
14:00+22зсз593894 0.0 10171972
17:00+20сз5842100 0.0 10171832
20:00+15зсз266552 0.0 1018160